Cedar City, UT

3:33 AM MST on January 24, 2018 (GMT -0700)
Cedar City Regional

Weather History for KCDC - September, 2013

Change the Weather History Date:

Saturday, September 7, 2013

  Actual Average Record
Temperature  
Mean Temperature 65 °F 65 °F  
Max Temperature 77 °F 82 °F 95 °F (1955)
Min Temperature 53 °F 49 °F 35 °F (2001)
Degree Days  
Heating Degree Days 0 2  
Month to date heating degree days 0 10  
Since 1 July heating degree days 3 19  
Cooling Degree Days 0 2  
Month to date cooling degree days 29 19  
Year to date cooling degree days 661 568  
Growing Degree Days 14 (Base 50)    
Moisture  
Dew Point 55 °F    
Average Humidity 69    
Maximum Humidity 90    
Minimum Humidity 47    
Precipitation  
Precipitation 0.10 in 0.01 in 1.09 in (1980)
Month to date precipitation 0.68 0.15  
Year to date precipitation 11.93 7.69  
Sea Level Pressure  
Sea Level Pressure 30.04 in    
Wind  
Wind Speed 5 mph (SW)    
Max Wind Speed 17 mph    
Max Gust Speed 24 mph    
Visibility 10 miles    
Events Rain , Thunderstorm    
T = Trace of Precipitation, MM = Missing Value Source: NWS Daily Summary

Daily Weather History Graph

Daily Weather History Graph

Search for Another Location

Airport or City:

Trip Planner

Search our weather history database for the weather conditions in past years. The results will help you decide how hot, cold, wet, or windy it might be!

Date:

Astronomy

Sep. 07, 2013 Rise Set
Actual Time 7:07 AM MDT 7:52 PM MDT
Civil Twilight 6:41 AM MDT 8:18 PM MDT
Nautical Twilight 6:09 AM MDT 8:49 PM MDT
Astronomical Twilight 5:37 AM MDT 9:22 PM MDT
Moon 9:22 AM MDT (9/7) 8:56 PM MDT (9/7)
Length of Visible Light 13h 37m
Length of Day
12h 44m
Waxing Crescent, 5% of the Moon is Illuminated
Sep 7
Waxing Crescent
Sep 12
First Quarter
Sep 19
Full
Sep 26
Last Quarter
Oct 4
New

Hourly Weather History & Observations

Time (MDT) Temp. Dew Point Humidity Pressure Visibility Wind Dir Wind Speed Gust Speed Precip Events Conditions
12:53 AM 68.0 °F 48.0 °F 49% 29.95 in 10.0 mi ESE 10.4 mph - N/A   Clear
1:53 AM 66.0 °F 48.0 °F 52% 29.95 in 10.0 mi Variable 4.6 mph - N/A   Clear
2:53 AM 60.1 °F 50.0 °F 69% 29.96 in 10.0 mi Calm Calm - N/A   Clear
3:53 AM 61.0 °F 48.9 °F 64% 29.95 in 10.0 mi ESE 3.5 mph - N/A   Mostly Cloudy
4:53 AM 61.0 °F 48.9 °F 64% 29.97 in 10.0 mi Calm Calm - N/A   Mostly Cloudy
5:53 AM 57.0 °F 50.0 °F 77% 29.97 in 10.0 mi Calm Calm - N/A   Clear
6:53 AM 54.0 °F 48.9 °F 83% 30.00 in 10.0 mi Calm Calm - N/A   Clear
7:53 AM 57.9 °F 51.1 °F 78% 30.02 in 10.0 mi SE 3.5 mph - N/A   Clear
8:53 AM 64.0 °F 52.0 °F 65% 30.02 in 10.0 mi Calm Calm - N/A   Clear
9:53 AM 64.9 °F 55.0 °F 70% 30.02 in 10.0 mi NE 4.6 mph - N/A   Mostly Cloudy
10:53 AM 59.0 °F 55.9 °F 90% 30.10 in 6.0 mi SW 15.0 mph 24.2 mph 0.02 in Rain Rain
11:33 AM 60.8 °F 57.2 °F 88% 30.29 in 7.0 mi SW 12.7 mph - 0.03 in Rain , Thunderstorm Light Rain
11:53 AM 60.1 °F 57.9 °F 93% 30.10 in 10.0 mi WSW 6.9 mph - 0.05 in Thunderstorm Thunderstorm
12:36 PM 62.6 °F 57.2 °F 82% 30.25 in 10.0 mi East 3.5 mph - 0.02 in   Overcast
12:53 PM 64.9 °F 57.9 °F 78% 30.04 in 10.0 mi NE 3.5 mph - 0.03 in   Mostly Cloudy
1:53 PM 66.0 °F 59.0 °F 78% 30.04 in 10.0 mi NNW 6.9 mph - N/A   Mostly Cloudy
2:53 PM 71.1 °F 57.0 °F 61% 30.00 in 10.0 mi Variable 4.6 mph - N/A   Clear
3:53 PM 75.0 °F 57.0 °F 53% 29.96 in 10.0 mi North 9.2 mph - N/A   Clear
4:53 PM 73.9 °F 54.0 °F 50% 29.94 in 10.0 mi North 4.6 mph - N/A   Clear
5:53 PM 73.0 °F 57.0 °F 57% 29.96 in 10.0 mi WNW 8.1 mph - N/A   Partly Cloudy
6:53 PM 66.9 °F 55.0 °F 66% 29.99 in 10.0 mi WNW 4.6 mph - N/A   Partly Cloudy
7:53 PM 68.0 °F 55.0 °F 63% 29.98 in 10.0 mi Calm Calm - N/A   Overcast
8:53 PM 66.9 °F 55.0 °F 66% 29.99 in 10.0 mi Calm Calm - N/A   Overcast
9:51 PM 60.8 °F 59.0 °F 94% 30.21 in 9.0 mi SSW 5.8 mph - 0.01 in Rain , Thunderstorm Light Rain
9:53 PM 61.0 °F 59.0 °F 93% 30.04 in 9.0 mi WSW 3.5 mph - 0.02 in Rain , Thunderstorm Light Rain
10:06 PM 60.8 °F 59.0 °F 94% 30.21 in 10.0 mi WSW 4.6 mph - 0.01 in Rain Light Rain
10:53 PM 60.1 °F 57.9 °F 93% 30.07 in 10.0 mi South 6.9 mph - 0.07 in Rain Light Rain
11:53 PM 59.0 °F 57.9 °F 96% 30.05 in 10.0 mi SSW 3.5 mph - 0.01 in Rain Light Rain